This demonstration page uses our WeatherBlox Daily Observations layout. Learn more.

Left ArrowRight Arrow

40.97296, -117.73568

Hourly Observations for November 1, 2020

Temp ( °F °C ) Dew Point ( °F °C ) Humidity (%) Winds ( mph kmh ) Pressure ( in mb ) Visibility ( mi km ) Precip ( " mm )
12:56 am 00:56 Clear 30 -1.1 13 -10.6 49 49 SE 7 11 30.33 1027 10 16 0.00 0.00
1:56 am 01:56 Clear 29 -1.7 13 -10.6 51 51 Calm 30.33 1027 10 16 0.00 0.00
1:56 am 01:56 Clear 28 -2.2 13 -10.6 53 53 VRB 6 9 30.34 1027 10 16 0.00 0.00
2:56 am 02:56 Clear 25 -3.9 10 -12.2 53 53 Calm 30.34 1028 10 16 0.00 0.00
3:56 am 03:56 Clear 24 -4.4 10 -12.2 55 55 SE 5 7 30.35 1028 10 16 0.00 0.00
4:56 am 04:56 Clear 25 -3.9 11 -11.7 55 55 S 5 7 30.37 1029 10 16 0.00 0.00
5:56 am 05:56 Clear 26 -3.3 13 -10.6 57 57 Calm 30.41 1030 10 16 0.00 0.00
6:56 am 06:56 Sunny 25 -3.9 12 -11.1 58 58 SSW 3 6 30.45 1031 10 16 0.00 0.00
7:56 am 07:56 Sunny 36 2.2 16 -8.9 44 44 SE 5 7 30.44 1031 10 16 0.00 0.00
8:56 am 08:56 Sunny 52 11.1 22 -5.6 31 31 E 9 15 30.41 1030 10 16 0.00 0.00
9:56 am 09:56 Sunny 56 13.3 22 -5.6 27 27 ENE 9 15 30.39 1029 10 16 0.00 0.00
10:56 am 10:56 Sunny 62 16.7 22 -5.6 21 21 ENE 7 11 30.37 1028 10 16 0.00 0.00
11:56 am 11:56 Sunny 67 19.4 20 -6.7 17 17 VRB 5 7 30.35 1028 10 16 0.00 0.00
12:56 pm 12:56 Sunny 70 21.1 19 -7.2 14 14 NE 5 7 30.31 1027 10 16 0.00 0.00
1:56 pm 13:56 Sunny 72 22.2 17 -8.3 12 12 VRB 5 7 30.30 1026 10 16 0.00 0.00
2:56 pm 14:56 Sunny 74 23.3 17 -8.3 11 11 E 3 6 30.29 1026 10 16 0.00 0.00
3:56 pm 15:56 Sunny 72 22.2 17 -8.3 12 12 NE 5 7 30.29 1026 10 16 0.00 0.00
4:56 pm 16:56 Clear 64 17.8 17 -8.3 16 16 NE 8 13 30.30 1026 10 16 0.00 0.00
5:56 pm 17:56 Clear 52 11.1 15 -9.4 23 23 NE 5 7 30.34 1027 8 13 0.00 0.00
6:56 pm 18:56 Clear 44 6.7 11 -11.7 26 26 WNW 5 7 30.37 1028 10 16 0.00 0.00
7:56 pm 19:56 Clear 46 7.8 14 -10 27 27 SSE 12 19 30.35 1028 10 16 0.00 0.00
8:56 pm 20:56 Clear 41 5 13 -10.6 32 32 Calm 30.32 1027 10 16 0.00 0.00
9:56 pm 21:56 Clear 36 2.2 11 -11.7 35 35 SE 7 11 30.33 1027 10 16 0.00 0.00
10:56 pm 22:56 Clear 37 2.8 12 -11.1 36 36 NE 3 6 30.31 1026 10 16 0.00 0.00
11:56 pm 23:56 Clear 30 -1.1 9 -12.8 41 41 SSE 6 9 30.32 1027 10 16 0.00 0.00

Powered by AerisWeather